Terminal Aerodrome Forecast
Issued by NWS Miami, FL

Home | Current Version | Previous Version | Text Only | Print | Product List | Glossary On
Versions: 1 2 3 4 5 6 7 8 9 10 11 12 13 14 15 16 17 18 19 20 21 22 23 24 25 26 27 28 29 30 31 32 33 34 35 36 37 38 39 40 41 42 43 44 45 46 47 48 49
000
FTUS42 KMFL 060232 AAA
TAFAPF
TAF AMD
KAPF 060232Z 0603/0624 17005KT P6SM SKC
     FM060700 00000KT 3SM BR FEW005
      TEMPO 0610/0612 1SM BR SCT005
     FM061300 07005KT P6SM FEW020
     FM061700 29009KT P6SM SKC=

USA.gov is the U.S. government's official web portal to all federal, state and local government web resources and services.